Terminal Aerodrome Forecast
Issued by NWS

Home | Current Version | Previous Version | Graphics & Text | Print | Product List | Glossary On
Versions: 1 2 3 4 5 6 7 8 9 10 11 12 13 14 15
000
FTUS43 KBIS 141500 AAA
TAFDIK
TAF AMD
KDIK 141503Z 1415/1512 34014G21KT 1/2SM SN BKN015
     FM141600 33012KT P6SM BKN030
     FM141900 32008KT P6SM SCT030
     FM150200 19005KT P6SM SKC
     FM150800 15013KT P6SM BKN070
      AMD NOT SKED=

USA.gov is the U.S. government's official web portal to all federal, state and local government web resources and services.